STARLINK-6353, 57056

Orbit data source: Space-Track

STARLINK-6353, 57056 is a payload satellite owned by SpaceX/Seattle (US) in LEO that was launched on Thu, 22 Jun 2023 UTC via an FALCON 9 launch vehicle from the Air Force Western Test Range (AFWTR). Payload-class satellites include a variety of spacecraft equipped with specific instruments for various scientific and technological missions. These include communications satellites like Starlink; space stations such as the ISS; scientific satellites like the Hubble; Earth observation satellites from companies like Planet Labs, Umbra, and HawkEye 360; GPS; miniature CubeSats for education and research; and military/defense satellites.

Loading next visibility...
Identifier
57056, 2023-088J
Orbit
LEO
Country
Flag of USUS
Related business
Manufacturer
SpaceX/Seattle
Mission
Operational Commercial Communications
Bus & Motor
STARLINK, Unknown motor
Mass
305 kg wet, ~290 kg dry
Launch date (UTC)
Icon of a cake. It is the launch day of the satellite!2023-06-22 (3 years ago)
Launch vehicle
FALCON 9
Launch site
Air Force Western Test Range (AFWTR)
Object type
Payload
Rocket body
Debris
Shape & HBR
Box + 1 Pan, 10.1 m
Radar Cross Section
11.087 m², Large (>1 m²)

Expand to show TLE details & history
Last TLE update: 2 days ago

TLE from 2 days ago
0 STARLINK-6353
1 57056U 23088J   26171.26526185 -.00000069  00000-0  70118-5 0  9994
2 57056  43.0023 251.0629 0001075 273.3980  86.6749 15.27576157166028
Epoch: 2026-06-20T06:21Z
TLE epoch observation values (Epoch: 2026-06-20T06:21:58.623Z)
Latitude
-0.00001°
Longitude
-112.91374°
Altitude
482.794 km
Speed
7.626 km/s
True Right ascension
16h 44m 15s
True Declination
0° 00' 00"
Sunlit
Object was in full shadow at epoch
Visualization orbit readout
Latitude
Unknown
Longitude
Unknown
Altitude
Unknown
Speed
Unknown
Apparent Right ascension
Unknown
Apparent Declination
Unknown
Sunlit
N/A
Visualization observer readout
Local Sidereal Time
21:31:51
Azimuth
Unknown
Elevation
Unknown
Doppler factor
Unknown
Orbital elements
Apogee altitude
485.743 km
Perigee altitude
484.268 km
Semi-major axis
6,863.142 km
Eccentricity
0.00011
Inclination
43.0023°
RAAN
251.0629°
Arg. of periapsis
273.398°
True anomaly
86.6872°
Mean anomaly
86.6749°
Eccentric anomaly
86.68105°
Mean motion
3.81732 °/min
Orbital period
94.31 mins
BSTAR
0.0000070118
Loading maneuver chart data...
Computing Atmospheric mass density...
Loading historical data...
Loading historical data...
Loading historical data...
Loading historical data...
Loading historical data...
Loading historical data...
Loading historical data...

Documentation

Showing up to 5 results
|